Tracking 27402 objects as of 2-Jun-2023
HD Live streaming from Space Station
objects crossing your sky now

COSMOS 1275 DEB

Track COSMOS 1275 DEB now!
10-day predictions


NORAD ID: 13802
Int'l Code: 1981-053GZ
Perigee: 933.3 km
Apogee: 1,028.4 km
Inclination: 82.8 °
Period: 104.6 minutes
Semi major axis: 7351 km
RCS: 0.052 m2 (small)
Launch date: June 4, 1981
Source: Commonwealth of Independent States (former USSR) (CIS)
Launch site: PLESETSK MISSILE AND SPACE COMPLEX (PKMTR)

Note: This is SATELLITE DEBRIS
Your satellite tracking list
Your tracking list is empty




NASA's NSSDC Master Catalog

Two Line Element Set (TLE):
1 13802U 81053GW  23152.91650093  .00000690  00000-0  67094-3 0  9991
2 13802  82.8034 206.0932 0064690  91.9995  82.2801 13.77240063 72317
Source of the keplerian elements: AFSPC